Weather History for Douglas, WY

Change the Weather History Date:

Wednesday, November 21, 2012

  Actual Average Record
Temperature  
Mean Temperature 53 °F 30 °F  
Max Temperature 63 °F 44 °F 63 °F (2012)
Min Temperature 43 °F 17 °F -5 °F (2013)
Degree Days  
Heating Degree Days 12 35  
Month to date heating degree days 467 625  
Since 1 July heating degree days 1237 1492  
Cooling Degree Days 0 0  
Month to date cooling degree days 0 0  
Year to date cooling degree days 831 486  
Growing Degree Days 6 (Base 50)    
Moisture  
Dew Point 21 °F    
Average Humidity 28    
Maximum Humidity 36    
Minimum Humidity 19    
Precipitation  
Precipitation 0.00 in 0.02 in 0.10 in (2010)
Month to date precipitation 0.02 0.49  
Year to date precipitation 5.10 12.83  
Sea Level Pressure  
Sea Level Pressure 29.81 in    
Wind  
Wind Speed 13 mph (WSW)    
Max Wind Speed 28 mph    
Max Gust Speed 40 mph    
Visibility 10 miles    
Events      
T = Trace of Precipitation, MM = Missing Value Source: NWS Daily Summary

Daily Weather History Graph

Daily Weather History Graph

Search for Another Location

Airport:

Trip Planner

Search our weather history database for the weather conditions in past years. The results will help you decide how hot, cold, wet, or windy it might be!

Date:

Astronomy

Nov. 21, 2012 Rise Set
Actual Time 7:01 AM MST 4:33 PM MST
Civil Twilight 6:30 AM MST 5:04 PM MST
Nautical Twilight 5:55 AM MST 5:38 PM MST
Astronomical Twilight 5:22 AM MST 6:12 PM MST
Moon 12:58 PM MST (11/21) 12:14 AM MST (11/21)
Length of Visible Light 10h 33m
Length of Day
9h 31m
Waxing Gibbous, 62% of the Moon is Illuminated
Nov 21
Waxing Gibbous
Nov 28
Full
Dec 6
Last Quarter
Dec 13
New
Dec 19
First Quarter

Hourly Weather History & Observations

Time (MST) Temp. Dew Point Humidity Pressure Visibility Wind Dir Wind Speed Gust Speed Precip Events Conditions
12:53 AM 51.1 °F 21.0 °F 31% 29.90 in - West 6.9 mph - N/A   Clear
1:53 AM 54.0 °F 21.0 °F 28% 29.87 in - WSW 17.3 mph - N/A   Clear
2:53 AM 53.1 °F 21.0 °F 29% 29.88 in - WSW 13.8 mph 24.2 mph N/A   Clear
3:53 AM 54.0 °F 21.9 °F 29% 29.85 in - WSW 20.7 mph 28.8 mph N/A   Clear
4:53 AM 53.1 °F 21.0 °F 29% 29.86 in - WSW 16.1 mph 25.3 mph N/A   Clear
5:53 AM 48.0 °F 21.9 °F 36% 29.89 in - SW 9.2 mph - N/A   Clear
6:53 AM 48.9 °F 21.9 °F 35% 29.89 in - SW 19.6 mph - N/A   Clear
7:53 AM 50.0 °F 21.9 °F 33% 29.89 in - West 12.7 mph - N/A   Clear
8:53 AM 52.0 °F 21.9 °F 31% 29.88 in - WSW 10.4 mph - N/A   Clear
9:53 AM 54.0 °F 19.9 °F 26% 29.84 in - SW 15.0 mph - N/A   Clear
10:53 AM 55.9 °F 19.9 °F 25% 29.81 in 10.0 mi SSW 5.8 mph - N/A   Clear
11:53 AM 57.0 °F 19.9 °F 24% 29.77 in 10.0 mi South 10.4 mph - N/A   Clear
12:53 PM 59.0 °F 19.9 °F 22% 29.76 in 10.0 mi SW 10.4 mph - N/A   Clear
1:53 PM 62.1 °F 19.0 °F 19% 29.73 in 10.0 mi WNW 17.3 mph - N/A   Clear
2:53 PM 63.0 °F 19.0 °F 18% 29.72 in 10.0 mi WSW 26.5 mph 31.1 mph N/A   Clear
3:53 PM 59.0 °F 19.9 °F 22% 29.72 in 10.0 mi WSW 18.4 mph - N/A   Clear
4:53 PM 54.0 °F 19.9 °F 26% 29.75 in 10.0 mi SW 11.5 mph - N/A   Clear
5:53 PM 48.9 °F 21.0 °F 33% 29.79 in 10.0 mi WSW 10.4 mph - N/A   Clear
6:53 PM 48.0 °F 19.9 °F 33% 29.80 in 10.0 mi South 5.8 mph - N/A   Clear
7:53 PM 50.0 °F 19.0 °F 29% 29.80 in 10.0 mi WSW 5.8 mph - N/A   Clear
8:53 PM 52.0 °F 19.9 °F 28% 29.78 in 10.0 mi WSW 12.7 mph - N/A   Clear
9:53 PM 50.0 °F 21.9 °F 33% 29.78 in 10.0 mi West 11.5 mph - N/A   Clear
10:53 PM 48.0 °F 23.0 °F 37% 29.78 in 10.0 mi West 10.4 mph - N/A   Clear
11:53 PM 50.0 °F 25.0 °F 38% 29.77 in 10.0 mi West 20.7 mph 25.3 mph N/A   Clear